[[{"header":{"parameterUnit":"m.s-1","parameterCategory":1,"la1":30.2991,"la2":30.254,"lo1":-89.0895,"lo2":-89.0444,"dy":0.0017,"dx":0.0017,"nx":28,"ny":28,"refTime":"2024-11-23T03:00:00:Z","depth":0,"parameterNumber":2,"parameterNumberName":"U-component_of_WINDS"},"data":[0,0,0,0,0,0,0,0,0,0,0,0,0,0,0,0,0,0,0,0,0,0,0,0,0,0,0,0,0,0,0,0,0,0,0,0,0,0,0,0,0,0,0,0,0,0,0,0,0,0,0,0,0,0,0,0,0,0,0.2492,0.2493,0,0.2573,0.2574,0.2575,0.2632,0.2632,0.2633,0.2633,0.2716,0.2717,0.2719,0,0,0,0,0,0,0,0,0,0,0,0,0,0.2386,0.2388,0.2492,0.2493,0.2494,0.2573,0.2574,0.2575,0.2632,0.2632,0.2633,0.2633,0.2715,0.2717,0.2719,0,0,0,0,0,0,0,0,0,0,0,0,0,0.2446,0.2388,0.2492,0.2532,0.2536,0.2573,0.2574,0.2576,0.2632,0.2632,0.2633,0.2634,0.2714,0.2717,0.272,0.2723,0,0,0.2728,0.2729,0,0,0,0,0,0,0,0,0.2443,0.245,0.2525,0.2529,0.2534,0.2593,0.2567,0.2625,0.2632,0.2595,0.2633,0.2634,0.2674,0.268,0.2694,0.2727,0.273,0.2728,0.273,0.2731,0.2731,0,0,0,0,0,0,0,0.2438,0.2447,0.2524,0.2526,0.2532,0.2546,0.2555,0.2578,0.263,0.2599,0.2603,0.2612,0.2677,0.2691,0.2696,0.2731,0.2728,0.273,0.2732,0.2733,0.277,0.2769,0,0,0,0,0,0,0.2428,0.2443,0.2522,0.2527,0.2489,0.2547,0.2557,0.2574,0.263,0.2639,0.2611,0.2614,0.2686,0.2693,0.2699,0.2706,0.2731,0.2733,0.2735,0.2771,0.277,0.2769,0,0,0,0,0,0,0.2426,0.2435,0.2519,0.2486,0.2498,0.2548,0.2566,0.2575,0.2589,0.264,0.2649,0.2616,0.2687,0.2696,0.2716,0.271,0.2734,0.2737,0.2771,0.277,0.277,0.272,0,0,0,0,0,0,0.2422,0.2433,0.2435,0.2486,0.2499,0.2534,0.2566,0.2576,0.2594,0.2598,0.2647,0.2656,0.2688,0.2712,0.2719,0.2714,0.2739,0.2772,0.2771,0.277,0.2723,0.2718,0.2714,0,0,0,0,0,0.2418,0.2418,0.2435,0.2444,0.2503,0.2534,0.2541,0.2579,0.2593,0.2595,0.2627,0.2654,0.271,0.2714,0.2722,0.2718,0.2773,0.2771,0.277,0.2725,0.2719,0.2714,0,0,0,0,0,0,0.2365,0.2425,0.2445,0.2461,0.2492,0.2543,0.2547,0.2572,0.2599,0.2602,0.2648,0.2659,0.2675,0.2699,0.2702,0.2724,0.2745,0.2745,0.2707,0.2702,0.2698,0.2691,0.2741,0,0,0,0,0,0.2356,0.2376,0.2427,0.2437,0.2451,0.2496,0.2511,0.2538,0.2571,0.2585,0.2618,0.265,0.2675,0.269,0.2715,0.2727,0.2738,0.2728,0.2723,0.2719,0.2719,0.2726,0.2722,0.2765,0.2765,0.2765,0,0,0.2336,0.2371,0.2381,0.2427,0.2454,0.2473,0.2507,0.2526,0.2541,0.2588,0.2609,0.2635,0.2673,0.2689,0.2698,0.2709,0.271,0.2718,0.2714,0.2716,0.2724,0.272,0.2716,0.2764,0.2764,0.2764,0,0,0.2309,0.2338,0.2349,0.2375,0.2415,0.2445,0.2448,0.2496,0.2514,0.2537,0.2572,0.259,0.2632,0.2658,0.2676,0.2659,0.2684,0.2666,0.2642,0.2648,0.2645,0.2642,0.2635,0.2632,0.2665,0.2665,0.2665,0,0.2279,0.231,0.2351,0.2368,0.2387,0.243,0.2441,0.2465,0.2511,0.2523,0.2536,0.2589,0.2617,0.2639,0.2635,0.2649,0.2653,0.266,0.2642,0.264,0.2638,0.2632,0.2629,0.2663,0.2663,0.2663,0.2663,0,0.2271,0.2292,0.2295,0.2339,0.2359,0.2372,0.2415,0.243,0.2455,0.2483,0.2505,0.2541,0.2575,0.2582,0.2607,0.2608,0.2614,0.2633,0.2655,0.263,0.2625,0.2624,0.2659,0.266,0.2661,0.2661,0,0,0.2212,0.2279,0.2279,0.2299,0.2347,0.2364,0.238,0.2413,0.2424,0.2455,0.2469,0.2503,0.2521,0.2542,0.257,0.2576,0.2559,0.2595,0.2597,0.2587,0.2562,0.2546,0.2542,0.2576,0.2576,0.2576,0.2558,0,0.2192,0.2223,0.226,0.2278,0.2298,0.2339,0.2353,0.2383,0.241,0.2431,0.2461,0.2484,0.2507,0.252,0.2528,0.2559,0.2554,0.2561,0.2589,0.259,0.2578,0.254,0.2523,0.2505,0.2556,0.2556,0.2556,0,0.2173,0.2202,0.2221,0.2267,0.2277,0.2288,0.2321,0.234,0.2375,0.2395,0.2418,0.2448,0.2466,0.2486,0.2511,0.2515,0.2529,0.2546,0.2547,0.255,0.2571,0.2541,0.25,0.2496,0.2554,0.2554,0.2554,0,0.2128,0.2171,0.2188,0.2204,0.2258,0.2265,0.2288,0.2324,0.2341,0.237,0.2381,0.2412,0.2428,0.2451,0.2488,0.2499,0.2509,0.2532,0.2525,0.2524,0.2525,0.2524,0.2484,0.2535,0.2535,0.2535,0.2535,0,0.2101,0.2111,0.2169,0.2179,0.2191,0.2234,0.2245,0.2272,0.2304,0.232,0.2358,0.2372,0.242,0.244,0.2469,0.2486,0.2493,0.2509,0.2516,0.2505,0.2503,0.2514,0.2516,0.2534,0.2534,0.2535,0.2535,0,0.2052,0.2091,0.2112,0.2162,0.2174,0.2181,0.2223,0.2235,0.2264,0.2284,0.2291,0.2337,0.2363,0.2402,0.2439,0.2459,0.247,0.2483,0.2458,0.2462,0.2453,0.2453,0.2417,0.2415,0.2468,0.2467,0.2467,0,0.2032,0.2041,0.2091,0.2105,0.2126,0.2147,0.2165,0.2207,0.2224,0.2265,0.2271,0.23,0.2325,0.2363,0.24,0.2428,0.2442,0.2427,0.2446,0.2434,0.244,0.2439,0.244,0.2423,0.2422,0.2421,0.2421,0,0.1992,0.2011,0.2035,0.2065,0.2085,0.2112,0.214,0.2148,0.2197,0.2214,0.224,0.2259,0.2297,0.2325,0.2358,0.2382,0.2409,0.2415,0.2414,0.2402,0.2387,0.2394,0.2445,0.2415,0.2416,0.2416,0.2416,0.2416,0.1957,0.1966,0.2003,0.2028,0.2054,0.2079,0.2092,0.2123,0.2146,0.218,0.2204,0.2228,0.2263,0.2311,0.2333,0.2353,0.2365,0.2365,0.2364,0.2363,0.2359,0.2384,0.2359,0.2359,0.236,0.236,0.236,0,0.1918,0.1944,0.1967,0.2004,0.2024,0.2049,0.2081,0.2096,0.2117,0.2147,0.2171,0.2201,0.2228,0.2266,0.2296,0.2304,0.2317,0.2311,0.231,0.2315,0.2347,0.2344,0.2299,0.2299,0.2299,0.2299,0.2299,0.2299,0.19,0.1917,0.194,0.197,0.1996,0.2021,0.2037,0.206,0.2084,0.2116,0.2139,0.2164,0.2197,0.223,0.2255,0.2266,0.2275,0.2264,0.2278,0.2307,0.2313,0.2318,0.2315,0.2265,0.2265,0.2244,0.2244,0.2244]},{"header":{"parameterUnit":"m.s-1","parameterCategory":1,"la1":30.2991,"la2":30.254,"lo1":-89.0895,"lo2":-89.0444,"dy":0.0017,"dx":0.0017,"nx":28,"ny":28,"refTime":"2024-11-23T03:00:00:Z","depth":0,"parameterNumber":3,"parameterNumberName":"V-component_of_WINDS"},"data":[0,0,0,0,0,0,0,0,0,0,0,0,0,0,0,0,0,0,0,0,0,0,0,0,0,0,0,0,0,0,0,0,0,0,0,0,0,0,0,0,0,0,0,0,0,0,0,0,0,0,0,0,0,0,0,0,0,0,0.7307,0.7307,0,0.7264,0.7264,0.7263,0.7265,0.7265,0.7266,0.7267,0.722,0.7218,0.7216,0,0,0,0,0,0,0,0,0,0,0,0,0,0.7387,0.7386,0.7307,0.7307,0.7306,0.7265,0.7264,0.7263,0.7265,0.7265,0.7266,0.7267,0.722,0.7218,0.7216,0,0,0,0,0,0,0,0,0,0,0,0,0,0.7349,0.7385,0.7307,0.7302,0.7301,0.7265,0.7264,0.7263,0.7265,0.7265,0.7266,0.7267,0.7221,0.7219,0.7216,0.7181,0,0,0.7208,0.7206,0,0,0,0,0,0,0,0,0.7351,0.7346,0.7303,0.7302,0.7301,0.7271,0.7275,0.7236,0.7264,0.7278,0.7267,0.7268,0.7236,0.7232,0.7222,0.7179,0.7177,0.7207,0.7206,0.7205,0.7204,0,0,0,0,0,0,0,0.7354,0.7348,0.729,0.7303,0.7301,0.7301,0.7296,0.7268,0.7252,0.7277,0.7277,0.7272,0.7236,0.7225,0.7221,0.7176,0.7207,0.7205,0.7203,0.7202,0.7103,0.7102,0,0,0,0,0,0,0.7358,0.735,0.7292,0.7289,0.7329,0.7299,0.7294,0.728,0.7253,0.725,0.7271,0.7272,0.7229,0.7224,0.7219,0.7177,0.7205,0.7202,0.7201,0.7104,0.7102,0.7101,0,0,0,0,0,0,0.736,0.7353,0.7293,0.732,0.7312,0.7296,0.7281,0.7278,0.7267,0.7249,0.7246,0.7263,0.7229,0.7223,0.7191,0.7175,0.7201,0.7198,0.7105,0.7103,0.7102,0.7092,0,0,0,0,0,0,0.7362,0.7354,0.7341,0.7319,0.7311,0.7266,0.728,0.7277,0.7263,0.7264,0.724,0.7237,0.723,0.7195,0.7188,0.7172,0.7196,0.7106,0.7104,0.7102,0.7093,0.709,0.7087,0,0,0,0,0,0.7365,0.7339,0.734,0.7333,0.7295,0.7265,0.726,0.7253,0.7262,0.7249,0.7236,0.7238,0.7178,0.7192,0.7184,0.7167,0.7107,0.7105,0.7102,0.7095,0.7091,0.7087,0,0,0,0,0,0,0.7358,0.7336,0.7337,0.7304,0.7287,0.7266,0.7249,0.7249,0.7228,0.723,0.7221,0.7215,0.7183,0.7172,0.7187,0.7132,0.7144,0.714,0.714,0.7136,0.7133,0.7136,0.7194,0,0,0,0,0,0.7353,0.7332,0.7314,0.7286,0.7277,0.7265,0.7252,0.7248,0.7229,0.7221,0.7207,0.7188,0.7165,0.715,0.7128,0.7092,0.7086,0.7076,0.7073,0.7071,0.7067,0.7047,0.7042,0.7094,0.7094,0.7094,0,0,0.7341,0.7327,0.7314,0.7284,0.727,0.7248,0.7258,0.7234,0.7217,0.7217,0.7186,0.7175,0.7153,0.7119,0.7103,0.7109,0.7052,0.7068,0.7066,0.7064,0.7044,0.7039,0.7034,0.7092,0.7092,0.7093,0,0,0.7309,0.7296,0.7272,0.7258,0.7237,0.7229,0.7223,0.7202,0.7195,0.7164,0.7164,0.7143,0.7104,0.7088,0.7075,0.7038,0.7038,0.7031,0.7014,0.6994,0.699,0.6986,0.6972,0.6967,0.7027,0.7027,0.7027,0,0.7297,0.7264,0.7258,0.7234,0.7221,0.7221,0.7196,0.7182,0.7155,0.7145,0.7152,0.7103,0.7088,0.705,0.7041,0.7031,0.7023,0.7033,0.6991,0.6988,0.6984,0.697,0.6965,0.7026,0.7027,0.7027,0.7027,0,0.725,0.7227,0.721,0.7185,0.7169,0.7145,0.7134,0.7119,0.7117,0.7108,0.7076,0.7058,0.7033,0.7023,0.702,0.6985,0.6989,0.6994,0.7005,0.6978,0.6965,0.696,0.7025,0.7026,0.7026,0.7026,0,0,0.7211,0.7184,0.7178,0.7166,0.7144,0.7126,0.7101,0.7077,0.7063,0.7045,0.7023,0.699,0.6995,0.698,0.6975,0.6958,0.6928,0.6965,0.6964,0.6958,0.6887,0.6884,0.6878,0.6929,0.6928,0.6927,0.6889,0,0.7176,0.7133,0.7127,0.7089,0.7067,0.7067,0.7046,0.7029,0.702,0.7,0.6989,0.6966,0.6974,0.6965,0.6948,0.6936,0.6914,0.6938,0.6908,0.6907,0.6912,0.6871,0.6867,0.6832,0.6884,0.6883,0.6883,0,0.7129,0.711,0.707,0.705,0.7041,0.7022,0.6999,0.698,0.6961,0.6956,0.694,0.6937,0.691,0.6924,0.6887,0.6903,0.689,0.6883,0.6881,0.6877,0.6892,0.6865,0.682,0.6815,0.6875,0.6875,0.6876,0,0.7104,0.7069,0.704,0.703,0.7007,0.6993,0.6983,0.6965,0.6951,0.6931,0.6921,0.6898,0.6885,0.6867,0.6858,0.6868,0.6821,0.6834,0.6814,0.6815,0.6804,0.6804,0.6755,0.6797,0.6797,0.6797,0.6797,0,0.7065,0.704,0.7028,0.701,0.6982,0.6976,0.6948,0.6938,0.6922,0.6901,0.69,0.688,0.687,0.6849,0.6842,0.6811,0.6806,0.68,0.6798,0.6799,0.68,0.679,0.6792,0.6795,0.6796,0.6796,0.6796,0,0.7032,0.7023,0.6992,0.6973,0.6967,0.6947,0.6931,0.6913,0.6904,0.6878,0.6872,0.6858,0.6833,0.6822,0.6791,0.6787,0.6752,0.6752,0.6758,0.6758,0.6739,0.6741,0.6681,0.6673,0.672,0.672,0.672,0,0.7007,0.6988,0.6967,0.6954,0.6944,0.6922,0.6908,0.6901,0.6886,0.6863,0.6848,0.6823,0.6803,0.6763,0.6749,0.6726,0.6725,0.6706,0.6721,0.6723,0.6724,0.6725,0.6723,0.6703,0.6702,0.6702,0.6702,0,0.6964,0.6961,0.6941,0.692,0.6903,0.6886,0.6868,0.6857,0.6847,0.6831,0.6806,0.679,0.6759,0.6734,0.671,0.6698,0.6698,0.6697,0.6691,0.6692,0.6696,0.6693,0.675,0.6698,0.6698,0.6699,0.6699,0.6699,0.6934,0.6917,0.69,0.6878,0.6864,0.6849,0.6831,0.6821,0.68,0.6775,0.6772,0.6745,0.6726,0.6693,0.6681,0.6659,0.6664,0.6655,0.6653,0.6651,0.665,0.6701,0.6654,0.6655,0.6655,0.6655,0.6655,0,0.689,0.6879,0.6859,0.6836,0.6818,0.6821,0.6802,0.6787,0.6764,0.6747,0.6727,0.6699,0.6675,0.666,0.6635,0.6621,0.662,0.6614,0.6615,0.6612,0.6647,0.6654,0.6615,0.6615,0.6615,0.6615,0.6615,0.6615,0.6865,0.6836,0.6831,0.6796,0.6785,0.6759,0.6748,0.6734,0.672,0.6688,0.6669,0.666,0.6643,0.6618,0.6596,0.6592,0.6582,0.6577,0.6573,0.6606,0.661,0.6614,0.662,0.6575,0.6575,0.654,0.6539,0.6539]}]]